Hauptseite
METAR-TAF:

METAR-TAF

Flughäfen :

Fliegerhorst Faßberg

Faßberg, Deutschland

Breite: 52-55N, Länge: 010-11E, Höhe: 75 m

Beobachtung

Neuester Wetterbericht von vor 1 Stunde und 5 Minuten, um 03:20 UTC
Wind 2 kt aus Süd/Südwest
Temperatur -5°C
Luftfeuchtigkeit 93%
Luftdruck 1022 hPa
Sichtweite: 1600 m
Geschlossene Wolkendecke in der Höhe von 100 ft
feuchter Dunst

METAR: ETHS 210320Z 21002KT 1600 BR OVC001 M05/M06 Q1022 RED

Zeit: 05:25 (04:25 UTC)


TAF: fehlend

Wetterbeobachtungen und Prognosen von mehr als 4000 Flughäfen (METAR und TAF Bericht).

Die verfügbaren Stationen werden durch gelbe und rote Markierungen auf der Karte dargestellt.

Führen Sie die Maus auf sie, um den Namen der Station zu sehen.

Darauf klicken, um die Beobachtung von Wetterbeobachtungen und Prognosen zu sehen.

Um die Karte zu ändern : klicken Sie auf den grünen Tasten mit einem schwarzen Kreuz Zum Vergrößern, auf den grünen Button mit einem Gedankenstrich zu verkleinern, oder auf die grünen Pfeile für benachbarte Karten.


METAR-TAF: